owner,sensor,date,latitude,longitude,vertical_datum,mass_concentration_of_oxygen_in_sea_water,qcFlag 
DISL,ioos:station:DISL:PPTA:1,2017-06-01T00:00:00Z,30.2791,-87.5561,1.28,6.02,1111122 
DISL,ioos:station:DISL:PPTA:1,2017-06-01T00:30:00Z,30.2791,-87.5561,1.284,5.62,1111122 
DISL,ioos:station:DISL:PPTA:1,2017-06-01T01:00:00Z,30.2791,-87.5561,1.25,5.56,1111122 
DISL,ioos:station:DISL:PPTA:1,2017-06-01T01:30:00Z,30.2791,-87.5561,1.222,6.63,1111122 
DISL,ioos:station:DISL:PPTA:1,2017-06-01T02:00:00Z,30.2791,-87.5561,1.192,5.66,1111122 
DISL,ioos:station:DISL:PPTA:1,2017-06-01T02:30:00Z,30.2791,-87.5561,1.201,5.87,1111122 
DISL,ioos:station:DISL:PPTA:1,2017-06-01T03:00:00Z,30.2791,-87.5561,1.197,6.26,1111122 
DISL,ioos:station:DISL:PPTA:1,2017-06-01T03:30:00Z,30.2791,-87.5561,1.188,5.81,1111122 
DISL,ioos:station:DISL:PPTA:1,2017-06-01T04:00:00Z,30.2791,-87.5561,1.2,6.03,1111122 
DISL,ioos:station:DISL:PPTA:1,2017-06-01T04:30:00Z,30.2791,-87.5561,1.185,4.97,1111122 
DISL,ioos:station:DISL:PPTA:1,2017-06-01T05:00:00Z,30.2791,-87.5561,1.179,5.91,1111122 
DISL,ioos:station:DISL:PPTA:1,2017-06-01T05:30:00Z,30.2791,-87.5561,1.137,5.77,1111122 
DISL,ioos:station:DISL:PPTA:1,2017-06-01T06:00:00Z,30.2791,-87.5561,1.169,6.23,1111122 
DISL,ioos:station:DISL:PPTA:1,2017-06-01T06:30:00Z,30.2791,-87.5561,1.156,5.87,1111122 
DISL,ioos:station:DISL:PPTA:1,2017-06-01T07:00:00Z,30.2791,-87.5561,1.167,5.99,1111122 
DISL,ioos:station:DISL:PPTA:1,2017-06-01T07:30:00Z,30.2791,-87.5561,1.151,5.71,1111122 
DISL,ioos:station:DISL:PPTA:1,2017-06-01T08:00:00Z,30.2791,-87.5561,1.144,5.32,1111122 
DISL,ioos:station:DISL:PPTA:1,2017-06-01T08:30:00Z,30.2791,-87.5561,1.137,5.33,1111122 
DISL,ioos:station:DISL:PPTA:1,2017-06-01T09:00:00Z,30.2791,-87.5561,1.126,5.51,1111122 
DISL,ioos:station:DISL:PPTA:1,2017-06-01T09:30:00Z,30.2791,-87.5561,1.171,4.86,1111122 
DISL,ioos:station:DISL:PPTA:1,2017-06-01T10:00:00Z,30.2791,-87.5561,1.164,4.77,1111122 
DISL,ioos:station:DISL:PPTA:1,2017-06-01T10:30:00Z,30.2791,-87.5561,1.169,5.02,1111122 
DISL,ioos:station:DISL:PPTA:1,2017-06-01T11:00:00Z,30.2791,-87.5561,1.204,5.25,1111122 
DISL,ioos:station:DISL:PPTA:1,2017-06-01T11:30:00Z,30.2791,-87.5561,1.177,4.98,1111122 
DISL,ioos:station:DISL:PPTA:1,2017-06-01T12:00:00Z,30.2791,-87.5561,1.169,4.82,1111122 
DISL,ioos:station:DISL:PPTA:1,2017-06-01T12:30:00Z,30.2791,-87.5561,1.228,4.89,1111122 
DISL,ioos:station:DISL:PPTA:1,2017-06-01T13:00:00Z,30.2791,-87.5561,1.204,5.26,1111122 
DISL,ioos:station:DISL:PPTA:1,2017-06-01T13:30:00Z,30.2791,-87.5561,1.219,5.26,1111122 
DISL,ioos:station:DISL:PPTA:1,2017-06-01T14:00:00Z,30.2791,-87.5561,1.227,5.31,1111122 
DISL,ioos:station:DISL:PPTA:1,2017-06-01T14:30:00Z,30.2791,-87.5561,1.238,5.53,1111122 
DISL,ioos:station:DISL:PPTA:1,2017-06-01T15:00:00Z,30.2791,-87.5561,1.198,4.86,1111122 
DISL,ioos:station:DISL:PPTA:1,2017-06-01T15:30:00Z,30.2791,-87.5561,1.212,5.03,1111122 
DISL,ioos:station:DISL:PPTA:1,2017-06-01T16:00:00Z,30.2791,-87.5561,1.245,5.7,1111122 
DISL,ioos:station:DISL:PPTA:1,2017-06-01T16:30:00Z,30.2791,-87.5561,1.256,5.67,1111122 
DISL,ioos:station:DISL:PPTA:1,2017-06-01T17:00:00Z,30.2791,-87.5561,1.277,5.77,1111122 
DISL,ioos:station:DISL:PPTA:1,2017-06-01T17:30:00Z,30.2791,-87.5561,1.284,5.44,1111122 
DISL,ioos:station:DISL:PPTA:1,2017-06-01T18:00:00Z,30.2791,-87.5561,1.272,5.63,1111122 
DISL,ioos:station:DISL:PPTA:1,2017-06-01T18:30:00Z,30.2791,-87.5561,1.285,6.09,1111122 
DISL,ioos:station:DISL:PPTA:1,2017-06-01T19:00:00Z,30.2791,-87.5561,1.307,5.51,1111122 
DISL,ioos:station:DISL:PPTA:1,2017-06-01T19:30:00Z,30.2791,-87.5561,1.276,6.26,1111122 
DISL,ioos:station:DISL:PPTA:1,2017-06-01T20:00:00Z,30.2791,-87.5561,1.282,6.36,1111122 
DISL,ioos:station:DISL:PPTA:1,2017-06-01T20:30:00Z,30.2791,-87.5561,1.284,6.27,1111122 
DISL,ioos:station:DISL:PPTA:1,2017-06-01T21:00:00Z,30.2791,-87.5561,1.289,6.66,1111122 
DISL,ioos:station:DISL:PPTA:1,2017-06-01T21:30:00Z,30.2791,-87.5561,1.287,6.39,1111122 
DISL,ioos:station:DISL:PPTA:1,2017-06-01T22:00:00Z,30.2791,-87.5561,1.286,7.09,1111122 
DISL,ioos:station:DISL:PPTA:1,2017-06-01T22:30:00Z,30.2791,-87.5561,1.267,6.61,1111122 
DISL,ioos:station:DISL:PPTA:1,2017-06-01T23:00:00Z,30.2791,-87.5561,1.286,7.29,1111122 
DISL,ioos:station:DISL:PPTA:1,2017-06-01T23:30:00Z,30.2791,-87.5561,1.282,7.29,1111122 
DISL,ioos:station:DISL:PPTA:1,2017-06-02T00:00:00Z,30.2791,-87.5561,1.267,6.86,1111122 
DISL,ioos:station:DISL:PPTA:1,2017-06-02T00:30:00Z,30.2791,-87.5561,1.262,7.24,1111122 
DISL,ioos:station:DISL:PPTA:1,2017-06-02T01:00:00Z,30.2791,-87.5561,1.245,7.4,1111122 
DISL,ioos:station:DISL:PPTA:1,2017-06-02T01:30:00Z,30.2791,-87.5561,1.245,7.22,1111122 
DISL,ioos:station:DISL:PPTA:1,2017-06-02T02:00:00Z,30.2791,-87.5561,1.224,6.94,1111122 
DISL,ioos:station:DISL:PPTA:1,2017-06-02T02:30:00Z,30.2791,-87.5561,1.222,7.07,1111122 
DISL,ioos:station:DISL:PPTA:1,2017-06-02T03:00:00Z,30.2791,-87.5561,1.22,6.51,1111122 
DISL,ioos:station:DISL:PPTA:1,2017-06-02T03:30:00Z,30.2791,-87.5561,1.223,6.59,1111122 
DISL,ioos:station:DISL:PPTA:1,2017-06-02T04:00:00Z,30.2791,-87.5561,1.211,5.98,1111122 
DISL,ioos:station:DISL:PPTA:1,2017-06-02T04:30:00Z,30.2791,-87.5561,1.203,5.85,1111122 
DISL,ioos:station:DISL:PPTA:1,2017-06-02T05:00:00Z,30.2791,-87.5561,1.199,5.54,1111122 
DISL,ioos:station:DISL:PPTA:1,2017-06-02T05:30:00Z,30.2791,-87.5561,1.215,4.72,1111122 
DISL,ioos:station:DISL:PPTA:1,2017-06-02T06:00:00Z,30.2791,-87.5561,1.205,5.94,1111122 
DISL,ioos:station:DISL:PPTA:1,2017-06-02T06:30:00Z,30.2791,-87.5561,1.196,5.32,1111122 
DISL,ioos:station:DISL:PPTA:1,2017-06-02T07:00:00Z,30.2791,-87.5561,1.212,5.38,1111122 
DISL,ioos:station:DISL:PPTA:1,2017-06-02T07:30:00Z,30.2791,-87.5561,1.213,5.77,1111122 
DISL,ioos:station:DISL:PPTA:1,2017-06-02T08:00:00Z,30.2791,-87.5561,1.223,5.08,1111122 
DISL,ioos:station:DISL:PPTA:1,2017-06-02T08:30:00Z,30.2791,-87.5561,1.207,4.7,1111122 
DISL,ioos:station:DISL:PPTA:1,2017-06-02T09:00:00Z,30.2791,-87.5561,1.203,5.03,1111122 
DISL,ioos:station:DISL:PPTA:1,2017-06-02T09:30:00Z,30.2791,-87.5561,1.226,5.21,1111122 
DISL,ioos:station:DISL:PPTA:1,2017-06-02T10:00:00Z,30.2791,-87.5561,1.222,5.02,1111122 
DISL,ioos:station:DISL:PPTA:1,2017-06-02T10:30:00Z,30.2791,-87.5561,1.223,4.51,1111122 
DISL,ioos:station:DISL:PPTA:1,2017-06-02T11:00:00Z,30.2791,-87.5561,1.231,5.26,1111122 
DISL,ioos:station:DISL:PPTA:1,2017-06-02T11:30:00Z,30.2791,-87.5561,1.244,5.19,1111122 
DISL,ioos:station:DISL:PPTA:1,2017-06-02T12:00:00Z,30.2791,-87.5561,1.259,5.26,1111122 
DISL,ioos:station:DISL:PPTA:1,2017-06-02T12:30:00Z,30.2791,-87.5561,1.26,5.69,1111122 
DISL,ioos:station:DISL:PPTA:1,2017-06-02T13:00:00Z,30.2791,-87.5561,1.269,5.92,1111122 
DISL,ioos:station:DISL:PPTA:1,2017-06-02T13:30:00Z,30.2791,-87.5561,1.269,5.89,1111122 
DISL,ioos:station:DISL:PPTA:1,2017-06-02T14:00:00Z,30.2791,-87.5561,1.253,5.93,1111122 
DISL,ioos:station:DISL:PPTA:1,2017-06-02T14:30:00Z,30.2791,-87.5561,1.266,5.6,1111122 
DISL,ioos:station:DISL:PPTA:1,2017-06-02T15:00:00Z,30.2791,-87.5561,1.277,5.78,1111122 
DISL,ioos:station:DISL:PPTA:1,2017-06-02T15:30:00Z,30.2791,-87.5561,1.283,6.05,1111122 
DISL,ioos:station:DISL:PPTA:1,2017-06-02T16:00:00Z,30.2791,-87.5561,1.267,5.87,1111122 
DISL,ioos:station:DISL:PPTA:1,2017-06-02T16:30:00Z,30.2791,-87.5561,1.27,5.8,1111122 
DISL,ioos:station:DISL:PPTA:1,2017-06-02T17:00:00Z,30.2791,-87.5561,1.272,5.82,1111122 
DISL,ioos:station:DISL:PPTA:1,2017-06-02T17:30:00Z,30.2791,-87.5561,1.278,5.99,1111122 
DISL,ioos:station:DISL:PPTA:1,2017-06-02T18:00:00Z,30.2791,-87.5561,1.286,6.11,1111122 
DISL,ioos:station:DISL:PPTA:1,2017-06-02T18:30:00Z,30.2791,-87.5561,1.294,6.31,1111122 
DISL,ioos:station:DISL:PPTA:1,2017-06-02T19:00:00Z,30.2791,-87.5561,1.284,6.35,1111122 
DISL,ioos:station:DISL:PPTA:1,2017-06-02T19:30:00Z,30.2791,-87.5561,1.273,6.36,1111122 
DISL,ioos:station:DISL:PPTA:1,2017-06-02T20:00:00Z,30.2791,-87.5561,1.286,6.37,1111122 
DISL,ioos:station:DISL:PPTA:1,2017-06-02T20:30:00Z,30.2791,-87.5561,1.278,6.57,1111122 
DISL,ioos:station:DISL:PPTA:1,2017-06-02T21:00:00Z,30.2791,-87.5561,1.28,6.76,1111122 
DISL,ioos:station:DISL:PPTA:1,2017-06-02T21:30:00Z,30.2791,-87.5561,1.273,6.81,1111122 
DISL,ioos:station:DISL:PPTA:1,2017-06-02T22:00:00Z,30.2791,-87.5561,1.278,6.85,1111122 
DISL,ioos:station:DISL:PPTA:1,2017-06-02T22:30:00Z,30.2791,-87.5561,1.264,7.08,1111122 
DISL,ioos:station:DISL:PPTA:1,2017-06-02T23:00:00Z,30.2791,-87.5561,1.257,6.93,1111122 
DISL,ioos:station:DISL:PPTA:1,2017-06-02T23:30:00Z,30.2791,-87.5561,1.271,6.5,1111122 
DISL,ioos:station:DISL:PPTA:1,2017-06-03T00:00:00Z,30.2791,-87.5561,1.265,6.83,1111122 
DISL,ioos:station:DISL:PPTA:1,2017-06-03T00:30:00Z,30.2791,-87.5561,1.274,6.42,1111122 
DISL,ioos:station:DISL:PPTA:1,2017-06-03T01:00:00Z,30.2791,-87.5561,1.26,6.65,1111122 
DISL,ioos:station:DISL:PPTA:1,2017-06-03T01:30:00Z,30.2791,-87.5561,1.254,6.66,1111122 
DISL,ioos:station:DISL:PPTA:1,2017-06-03T02:00:00Z,30.2791,-87.5561,1.241,7.13,1111122 
DISL,ioos:station:DISL:PPTA:1,2017-06-03T02:30:00Z,30.2791,-87.5561,1.241,6.67,1111122 
DISL,ioos:station:DISL:PPTA:1,2017-06-03T03:00:00Z,30.2791,-87.5561,1.233,6.4,1111122 
DISL,ioos:station:DISL:PPTA:1,2017-06-03T03:30:00Z,30.2791,-87.5561,1.228,6.17,1111122 
DISL,ioos:station:DISL:PPTA:1,2017-06-03T04:00:00Z,30.2791,-87.5561,1.225,6.27,1111122 
DISL,ioos:station:DISL:PPTA:1,2017-06-03T04:30:00Z,30.2791,-87.5561,1.224,6.38,1111122 
DISL,ioos:station:DISL:PPTA:1,2017-06-03T05:00:00Z,30.2791,-87.5561,1.229,6.4,1111122 
DISL,ioos:station:DISL:PPTA:1,2017-06-03T05:30:00Z,30.2791,-87.5561,1.231,6.67,1111122 
DISL,ioos:station:DISL:PPTA:1,2017-06-03T06:00:00Z,30.2791,-87.5561,1.237,6.33,1111122 
DISL,ioos:station:DISL:PPTA:1,2017-06-03T06:30:00Z,30.2791,-87.5561,1.237,6.09,1111122 
DISL,ioos:station:DISL:PPTA:1,2017-06-03T07:00:00Z,30.2791,-87.5561,1.252,5.28,1111122 
DISL,ioos:station:DISL:PPTA:1,2017-06-03T07:30:00Z,30.2791,-87.5561,1.253,5.76,1111122 
DISL,ioos:station:DISL:PPTA:1,2017-06-03T08:00:00Z,30.2791,-87.5561,1.268,5.82,1111122 
DISL,ioos:station:DISL:PPTA:1,2017-06-03T08:30:00Z,30.2791,-87.5561,1.259,5.97,1111122 
DISL,ioos:station:DISL:PPTA:1,2017-06-03T09:00:00Z,30.2791,-87.5561,1.252,5.06,1111122 
DISL,ioos:station:DISL:PPTA:1,2017-06-03T09:30:00Z,30.2791,-87.5561,1.249,5.57,1111122 
DISL,ioos:station:DISL:PPTA:1,2017-06-03T10:00:00Z,30.2791,-87.5561,1.261,5.81,1111122 
DISL,ioos:station:DISL:PPTA:1,2017-06-03T10:30:00Z,30.2791,-87.5561,1.267,5.57,1111122 
DISL,ioos:station:DISL:PPTA:1,2017-06-03T11:00:00Z,30.2791,-87.5561,1.269,6.03,1111122 
DISL,ioos:station:DISL:PPTA:1,2017-06-03T11:30:00Z,30.2791,-87.5561,1.282,6.08,1111122 
DISL,ioos:station:DISL:PPTA:1,2017-06-03T12:00:00Z,30.2791,-87.5561,1.28,6.21,1111122 
DISL,ioos:station:DISL:PPTA:1,2017-06-03T12:30:00Z,30.2791,-87.5561,1.299,6.1,1111122 
DISL,ioos:station:DISL:PPTA:1,2017-06-03T13:00:00Z,30.2791,-87.5561,1.298,5.85,1111122 
DISL,ioos:station:DISL:PPTA:1,2017-06-03T13:30:00Z,30.2791,-87.5561,1.314,5.99,1111122 
DISL,ioos:station:DISL:PPTA:1,2017-06-03T14:00:00Z,30.2791,-87.5561,1.297,6.18,1111122 
DISL,ioos:station:DISL:PPTA:1,2017-06-03T14:30:00Z,30.2791,-87.5561,1.3,6.1,1111122 
DISL,ioos:station:DISL:PPTA:1,2017-06-03T15:00:00Z,30.2791,-87.5561,1.292,6.25,1111122 
DISL,ioos:station:DISL:PPTA:1,2017-06-03T15:30:00Z,30.2791,-87.5561,1.281,6.17,1111122 
DISL,ioos:station:DISL:PPTA:1,2017-06-03T16:00:00Z,30.2791,-87.5561,1.265,6.23,1111122 
DISL,ioos:station:DISL:PPTA:1,2017-06-03T16:30:00Z,30.2791,-87.5561,1.267,6.35,1111122 
DISL,ioos:station:DISL:PPTA:1,2017-06-03T17:00:00Z,30.2791,-87.5561,1.268,6.58,1111122 
DISL,ioos:station:DISL:PPTA:1,2017-06-03T17:30:00Z,30.2791,-87.5561,1.264,6.67,1111122 
DISL,ioos:station:DISL:PPTA:1,2017-06-03T18:00:00Z,30.2791,-87.5561,1.25,6.86,1111122 
DISL,ioos:station:DISL:PPTA:1,2017-06-03T18:30:00Z,30.2791,-87.5561,1.251,6.66,1111122 
DISL,ioos:station:DISL:PPTA:1,2017-06-03T19:00:00Z,30.2791,-87.5561,1.252,7.12,1111122 
DISL,ioos:station:DISL:PPTA:1,2017-06-03T19:30:00Z,30.2791,-87.5561,1.257,7.26,1111122 
DISL,ioos:station:DISL:PPTA:1,2017-06-03T20:00:00Z,30.2791,-87.5561,1.261,7.29,1111122 
DISL,ioos:station:DISL:PPTA:1,2017-06-03T20:30:00Z,30.2791,-87.5561,1.241,7.25,1111122 
DISL,ioos:station:DISL:PPTA:1,2017-06-03T21:00:00Z,30.2791,-87.5561,1.245,7.32,1111122 
DISL,ioos:station:DISL:PPTA:1,2017-06-03T21:30:00Z,30.2791,-87.5561,1.232,6.9,1111122 
DISL,ioos:station:DISL:PPTA:1,2017-06-03T22:00:00Z,30.2791,-87.5561,1.218,7.15,1111122 
DISL,ioos:station:DISL:PPTA:1,2017-06-03T22:30:00Z,30.2791,-87.5561,1.207,6.98,1111122 
DISL,ioos:station:DISL:PPTA:1,2017-06-03T23:00:00Z,30.2791,-87.5561,1.213,7.07,1111122 
DISL,ioos:station:DISL:PPTA:1,2017-06-03T23:30:00Z,30.2791,-87.5561,1.216,6.99,1111122 
DISL,ioos:station:DISL:PPTA:1,2017-06-04T00:00:00Z,30.2791,-87.5561,1.201,6.59,1111122 
DISL,ioos:station:DISL:PPTA:1,2017-06-04T00:30:00Z,30.2791,-87.5561,1.208,7.0,1111122 
DISL,ioos:station:DISL:PPTA:1,2017-06-04T01:00:00Z,30.2791,-87.5561,1.208,6.83,1111122 
DISL,ioos:station:DISL:PPTA:1,2017-06-04T01:30:00Z,30.2791,-87.5561,1.207,6.43,1111122 
DISL,ioos:station:DISL:PPTA:1,2017-06-04T02:00:00Z,30.2791,-87.5561,1.21,6.7,1111122 
DISL,ioos:station:DISL:PPTA:1,2017-06-04T02:30:00Z,30.2791,-87.5561,1.203,5.84,1111122 
DISL,ioos:station:DISL:PPTA:1,2017-06-04T03:00:00Z,30.2791,-87.5561,1.196,5.37,1111122 
DISL,ioos:station:DISL:PPTA:1,2017-06-04T03:30:00Z,30.2791,-87.5561,1.196,5.69,1111122 
DISL,ioos:station:DISL:PPTA:1,2017-06-04T04:00:00Z,30.2791,-87.5561,1.186,5.07,1111122 
DISL,ioos:station:DISL:PPTA:1,2017-06-04T04:30:00Z,30.2791,-87.5561,1.178,5.2,1111122 
DISL,ioos:station:DISL:PPTA:1,2017-06-04T05:00:00Z,30.2791,-87.5561,1.173,5.58,1111122 
DISL,ioos:station:DISL:PPTA:1,2017-06-04T05:30:00Z,30.2791,-87.5561,1.194,5.9,1111122 
DISL,ioos:station:DISL:PPTA:1,2017-06-04T06:00:00Z,30.2791,-87.5561,1.206,5.75,1111122 
DISL,ioos:station:DISL:PPTA:1,2017-06-04T06:30:00Z,30.2791,-87.5561,1.214,5.06,1111122 
DISL,ioos:station:DISL:PPTA:1,2017-06-04T07:00:00Z,30.2791,-87.5561,1.234,5.79,1111122 
DISL,ioos:station:DISL:PPTA:1,2017-06-04T07:30:00Z,30.2791,-87.5561,1.243,6.12,1111122 
DISL,ioos:station:DISL:PPTA:1,2017-06-04T08:00:00Z,30.2791,-87.5561,1.26,5.7,1111122 
DISL,ioos:station:DISL:PPTA:1,2017-06-04T08:30:00Z,30.2791,-87.5561,1.291,5.7,1111122 
DISL,ioos:station:DISL:PPTA:1,2017-06-04T09:00:00Z,30.2791,-87.5561,1.28,6.15,1111122 
DISL,ioos:station:DISL:PPTA:1,2017-06-04T09:30:00Z,30.2791,-87.5561,1.286,6.02,1111122 
DISL,ioos:station:DISL:PPTA:1,2017-06-04T10:00:00Z,30.2791,-87.5561,1.31,5.91,1111122 
DISL,ioos:station:DISL:PPTA:1,2017-06-04T10:30:00Z,30.2791,-87.5561,1.308,5.85,1111122 
DISL,ioos:station:DISL:PPTA:1,2017-06-04T11:00:00Z,30.2791,-87.5561,1.307,5.47,1111122 
DISL,ioos:station:DISL:PPTA:1,2017-06-04T11:30:00Z,30.2791,-87.5561,1.317,5.49,1111122 
DISL,ioos:station:DISL:PPTA:1,2017-06-04T12:00:00Z,30.2791,-87.5561,1.33,5.42,1111122 
DISL,ioos:station:DISL:PPTA:1,2017-06-04T12:30:00Z,30.2791,-87.5561,1.355,5.55,1111122 
DISL,ioos:station:DISL:PPTA:1,2017-06-04T13:00:00Z,30.2791,-87.5561,1.362,5.4,1111122 
DISL,ioos:station:DISL:PPTA:1,2017-06-04T13:30:00Z,30.2791,-87.5561,1.355,6.2,1111122 
DISL,ioos:station:DISL:PPTA:1,2017-06-04T14:00:00Z,30.2791,-87.5561,1.362,5.89,1111122 
DISL,ioos:station:DISL:PPTA:1,2017-06-04T14:30:00Z,30.2791,-87.5561,1.374,5.68,1111122 
DISL,ioos:station:DISL:PPTA:1,2017-06-04T15:00:00Z,30.2791,-87.5561,1.352,6.28,1111122 
DISL,ioos:station:DISL:PPTA:1,2017-06-04T15:30:00Z,30.2791,-87.5561,1.347,5.76,1111122 
DISL,ioos:station:DISL:PPTA:1,2017-06-04T16:00:00Z,30.2791,-87.5561,1.339,6.33,1111122 
DISL,ioos:station:DISL:PPTA:1,2017-06-04T16:30:00Z,30.2791,-87.5561,1.306,6.7,1111122 
DISL,ioos:station:DISL:PPTA:1,2017-06-04T17:00:00Z,30.2791,-87.5561,1.319,6.88,1111122 
DISL,ioos:station:DISL:PPTA:1,2017-06-04T17:30:00Z,30.2791,-87.5561,1.305,7.01,1111122 
DISL,ioos:station:DISL:PPTA:1,2017-06-04T18:00:00Z,30.2791,-87.5561,1.313,6.61,1111122 
DISL,ioos:station:DISL:PPTA:1,2017-06-04T18:30:00Z,30.2791,-87.5561,1.302,6.87,1111122 
DISL,ioos:station:DISL:PPTA:1,2017-06-04T19:00:00Z,30.2791,-87.5561,1.313,6.4,1111122 
DISL,ioos:station:DISL:PPTA:1,2017-06-04T19:30:00Z,30.2791,-87.5561,1.296,6.94,1111122 
DISL,ioos:station:DISL:PPTA:1,2017-06-04T20:00:00Z,30.2791,-87.5561,1.278,7.56,1111122 
DISL,ioos:station:DISL:PPTA:1,2017-06-04T20:30:00Z,30.2791,-87.5561,1.277,7.47,1111122 
DISL,ioos:station:DISL:PPTA:1,2017-06-04T21:00:00Z,30.2791,-87.5561,1.274,7.03,1111122 
DISL,ioos:station:DISL:PPTA:1,2017-06-04T21:30:00Z,30.2791,-87.5561,1.276,6.97,1111122 
DISL,ioos:station:DISL:PPTA:1,2017-06-04T22:00:00Z,30.2791,-87.5561,1.283,6.84,1111122 
DISL,ioos:station:DISL:PPTA:1,2017-06-04T22:30:00Z,30.2791,-87.5561,1.261,7.04,1111122 
DISL,ioos:station:DISL:PPTA:1,2017-06-04T23:00:00Z,30.2791,-87.5561,1.262,6.84,1111122 
DISL,ioos:station:DISL:PPTA:1,2017-06-04T23:30:00Z,30.2791,-87.5561,1.24,6.95,1111122 
DISL,ioos:station:DISL:PPTA:1,2017-06-05T00:00:00Z,30.2791,-87.5561,1.243,7.09,1111122 
DISL,ioos:station:DISL:PPTA:1,2017-06-05T00:30:00Z,30.2791,-87.5561,1.247,6.45,1111122 
DISL,ioos:station:DISL:PPTA:1,2017-06-05T01:00:00Z,30.2791,-87.5561,1.253,6.66,1111122 
DISL,ioos:station:DISL:PPTA:1,2017-06-05T01:30:00Z,30.2791,-87.5561,1.258,5.85,1111122 
DISL,ioos:station:DISL:PPTA:1,2017-06-05T02:00:00Z,30.2791,-87.5561,1.26,5.99,1111122 
DISL,ioos:station:DISL:PPTA:1,2017-06-05T02:30:00Z,30.2791,-87.5561,1.257,5.48,1111122 
DISL,ioos:station:DISL:PPTA:1,2017-06-05T03:00:00Z,30.2791,-87.5561,1.252,5.3,1111122 
DISL,ioos:station:DISL:PPTA:1,2017-06-05T03:30:00Z,30.2791,-87.5561,1.259,5.79,1111122 
DISL,ioos:station:DISL:PPTA:1,2017-06-05T04:00:00Z,30.2791,-87.5561,1.271,6.35,1111122 
DISL,ioos:station:DISL:PPTA:1,2017-06-05T04:30:00Z,30.2791,-87.5561,1.253,6.81,1111122 
DISL,ioos:station:DISL:PPTA:1,2017-06-05T05:00:00Z,30.2791,-87.5561,1.257,5.25,1111122 
DISL,ioos:station:DISL:PPTA:1,2017-06-05T05:30:00Z,30.2791,-87.5561,1.261,5.53,1111122 
DISL,ioos:station:DISL:PPTA:1,2017-06-05T06:00:00Z,30.2791,-87.5561,1.269,6.03,1111122 
DISL,ioos:station:DISL:PPTA:1,2017-06-05T06:30:00Z,30.2791,-87.5561,1.278,5.32,1111122 
DISL,ioos:station:DISL:PPTA:1,2017-06-05T07:00:00Z,30.2791,-87.5561,1.308,5.23,1111122 
DISL,ioos:station:DISL:PPTA:1,2017-06-05T07:30:00Z,30.2791,-87.5561,1.287,5.55,1111122 
DISL,ioos:station:DISL:PPTA:1,2017-06-05T08:00:00Z,30.2791,-87.5561,1.308,5.21,1111122 
DISL,ioos:station:DISL:PPTA:1,2017-06-05T08:30:00Z,30.2791,-87.5561,1.34,5.99,1111122 
DISL,ioos:station:DISL:PPTA:1,2017-06-05T09:00:00Z,30.2791,-87.5561,1.352,5.64,1111122 
DISL,ioos:station:DISL:PPTA:1,2017-06-05T09:30:00Z,30.2791,-87.5561,1.358,5.79,1111122 
DISL,ioos:station:DISL:PPTA:1,2017-06-05T10:00:00Z,30.2791,-87.5561,1.381,5.35,1111122 
DISL,ioos:station:DISL:PPTA:1,2017-06-05T10:30:00Z,30.2791,-87.5561,1.386,5.82,1111122 
DISL,ioos:station:DISL:PPTA:1,2017-06-05T11:00:00Z,30.2791,-87.5561,1.39,5.34,1111122 
DISL,ioos:station:DISL:PPTA:1,2017-06-05T11:30:00Z,30.2791,-87.5561,1.416,5.2,1111122 
DISL,ioos:station:DISL:PPTA:1,2017-06-05T12:00:00Z,30.2791,-87.5561,1.408,5.49,1111122 
DISL,ioos:station:DISL:PPTA:1,2017-06-05T12:30:00Z,30.2791,-87.5561,1.401,5.36,1111122 
DISL,ioos:station:DISL:PPTA:1,2017-06-05T13:00:00Z,30.2791,-87.5561,1.431,5.21,1111122 
DISL,ioos:station:DISL:PPTA:1,2017-06-05T13:30:00Z,30.2791,-87.5561,1.442,5.42,1111122 
DISL,ioos:station:DISL:PPTA:1,2017-06-05T14:00:00Z,30.2791,-87.5561,1.429,5.77,1111122 
DISL,ioos:station:DISL:PPTA:1,2017-06-05T14:30:00Z,30.2791,-87.5561,1.462,5.91,1111122 
DISL,ioos:station:DISL:PPTA:1,2017-06-05T15:00:00Z,30.2791,-87.5561,1.436,6.36,1111122 
DISL,ioos:station:DISL:PPTA:1,2017-06-05T15:30:00Z,30.2791,-87.5561,1.437,6.07,1111122 
DISL,ioos:station:DISL:PPTA:1,2017-06-05T16:00:00Z,30.2791,-87.5561,1.403,6.46,1111122 
DISL,ioos:station:DISL:PPTA:1,2017-06-05T16:30:00Z,30.2791,-87.5561,1.411,6.27,1111122 
DISL,ioos:station:DISL:PPTA:1,2017-06-05T17:00:00Z,30.2791,-87.5561,1.371,6.6,1111122 
DISL,ioos:station:DISL:PPTA:1,2017-06-05T17:30:00Z,30.2791,-87.5561,1.363,6.88,1111122 
DISL,ioos:station:DISL:PPTA:1,2017-06-05T18:00:00Z,30.2791,-87.5561,1.366,7.11,1111122 
DISL,ioos:station:DISL:PPTA:1,2017-06-05T18:30:00Z,30.2791,-87.5561,1.329,6.41,1111122 
DISL,ioos:station:DISL:PPTA:1,2017-06-05T19:00:00Z,30.2791,-87.5561,1.309,7.21,1111122 
DISL,ioos:station:DISL:PPTA:1,2017-06-05T19:30:00Z,30.2791,-87.5561,1.322,6.93,1111122 
DISL,ioos:station:DISL:PPTA:1,2017-06-05T20:00:00Z,30.2791,-87.5561,1.321,7.01,1111122 
DISL,ioos:station:DISL:PPTA:1,2017-06-05T20:30:00Z,30.2791,-87.5561,1.313,6.57,1111122 
DISL,ioos:station:DISL:PPTA:1,2017-06-05T21:00:00Z,30.2791,-87.5561,1.316,7.47,1111122 
DISL,ioos:station:DISL:PPTA:1,2017-06-05T21:30:00Z,30.2791,-87.5561,1.311,6.72,1111122 
DISL,ioos:station:DISL:PPTA:1,2017-06-05T22:00:00Z,30.2791,-87.5561,1.304,7.19,1111122 
DISL,ioos:station:DISL:PPTA:1,2017-06-05T22:30:00Z,30.2791,-87.5561,1.277,7.16,1111122 
DISL,ioos:station:DISL:PPTA:1,2017-06-05T23:00:00Z,30.2791,-87.5561,1.274,7.69,1111122 
DISL,ioos:station:DISL:PPTA:1,2017-06-05T23:30:00Z,30.2791,-87.5561,1.259,6.83,1111122 
DISL,ioos:station:DISL:PPTA:1,2017-06-06T00:00:00Z,30.2791,-87.5561,1.282,7.19,1111122 
DISL,ioos:station:DISL:PPTA:1,2017-06-06T00:30:00Z,30.2791,-87.5561,1.262,7.13,1111122 
DISL,ioos:station:DISL:PPTA:1,2017-06-06T01:00:00Z,30.2791,-87.5561,1.249,7.27,1111122 
DISL,ioos:station:DISL:PPTA:1,2017-06-06T01:30:00Z,30.2791,-87.5561,1.268,6.96,1111122 
DISL,ioos:station:DISL:PPTA:1,2017-06-06T02:00:00Z,30.2791,-87.5561,1.268,7.21,1111122 
DISL,ioos:station:DISL:PPTA:1,2017-06-06T02:30:00Z,30.2791,-87.5561,1.289,6.33,1111122 
DISL,ioos:station:DISL:PPTA:1,2017-06-06T03:00:00Z,30.2791,-87.5561,1.296,6.35,1111122 
DISL,ioos:station:DISL:PPTA:1,2017-06-06T03:30:00Z,30.2791,-87.5561,1.309,6.08,1111122 
DISL,ioos:station:DISL:PPTA:1,2017-06-06T04:00:00Z,30.2791,-87.5561,1.297,6.58,1111122 
DISL,ioos:station:DISL:PPTA:1,2017-06-06T04:30:00Z,30.2791,-87.5561,1.283,5.82,1111122 
DISL,ioos:station:DISL:PPTA:1,2017-06-06T05:00:00Z,30.2791,-87.5561,1.327,5.86,1111122 
DISL,ioos:station:DISL:PPTA:1,2017-06-06T05:30:00Z,30.2791,-87.5561,1.296,5.97,1111122 
DISL,ioos:station:DISL:PPTA:1,2017-06-06T06:00:00Z,30.2791,-87.5561,1.338,5.92,1111122 
DISL,ioos:station:DISL:PPTA:1,2017-06-06T06:30:00Z,30.2791,-87.5561,1.373,6.71,1111122 
DISL,ioos:station:DISL:PPTA:1,2017-06-06T07:00:00Z,30.2791,-87.5561,1.36,6.06,1111122 
DISL,ioos:station:DISL:PPTA:1,2017-06-06T07:30:00Z,30.2791,-87.5561,1.373,6.09,1111122 
DISL,ioos:station:DISL:PPTA:1,2017-06-06T08:00:00Z,30.2791,-87.5561,1.366,6.27,1111122 
DISL,ioos:station:DISL:PPTA:1,2017-06-06T08:30:00Z,30.2791,-87.5561,1.368,6.45,1111122 
DISL,ioos:station:DISL:PPTA:1,2017-06-06T09:00:00Z,30.2791,-87.5561,1.38,6.06,1111122 
DISL,ioos:station:DISL:PPTA:1,2017-06-06T09:30:00Z,30.2791,-87.5561,1.462,6.03,1111122 
DISL,ioos:station:DISL:PPTA:1,2017-06-06T10:00:00Z,30.2791,-87.5561,1.497,6.27,1111122 
DISL,ioos:station:DISL:PPTA:1,2017-06-06T10:30:00Z,30.2791,-87.5561,1.504,6.14,1111122 
DISL,ioos:station:DISL:PPTA:1,2017-06-06T11:00:00Z,30.2791,-87.5561,1.486,6.32,1111122 
DISL,ioos:station:DISL:PPTA:1,2017-06-06T11:30:00Z,30.2791,-87.5561,1.513,6.22,1111122 
DISL,ioos:station:DISL:PPTA:1,2017-06-06T12:00:00Z,30.2791,-87.5561,1.538,6.17,1111122 
DISL,ioos:station:DISL:PPTA:1,2017-06-06T12:30:00Z,30.2791,-87.5561,1.55,5.86,1111122 
DISL,ioos:station:DISL:PPTA:1,2017-06-06T13:00:00Z,30.2791,-87.5561,1.528,6.08,1111122 
DISL,ioos:station:DISL:PPTA:1,2017-06-06T13:30:00Z,30.2791,-87.5561,1.54,6.05,1111122 
DISL,ioos:station:DISL:PPTA:1,2017-06-06T14:00:00Z,30.2791,-87.5561,1.543,6.32,1111122 
DISL,ioos:station:DISL:PPTA:1,2017-06-06T14:30:00Z,30.2791,-87.5561,1.563,6.18,1111122 
DISL,ioos:station:DISL:PPTA:1,2017-06-06T15:00:00Z,30.2791,-87.5561,1.579,5.97,1111122 
DISL,ioos:station:DISL:PPTA:1,2017-06-06T15:30:00Z,30.2791,-87.5561,1.544,6.17,1111122 